Total_Precipitation_Accumulation
0.00 0.00 0.00 0.00 0.00 0.00 0.00 0.00 0.00 0.00 0.06 0.10 0.09 0.09 0.05 0.03 0.03 0.01 0.00 0.00 0.00 0.00 0.00 0.00 0.00 0.00 0.00 0.00 0.00 0.00 0.00 0.00 0.00 0.00 0.00 0.00 0.00 0.00 0.00 0.00 0.00 0.00 0.00 0.00 0.00
0.00 0.00 0.00 0.00 0.00 0.00 0.00 0.00 0.00 0.00 0.00 0.00 0.02 0.04 0.04 0.02 0.01 0.03 0.00 0.00 0.00 0.00 0.00 0.00 0.00 0.02 0.01 0.00 0.00 0.00 0.00 0.00 0.00 0.00 0.00 0.00 0.00 0.00 0.00 0.00 0.00 0.00 0.00 0.00 0.00
0.00 0.00 0.00 0.00 0.00 0.00 0.00 0.00 0.00 0.00 0.00 0.00 0.00 0.00 0.01 0.02 0.01 0.00 0.00 0.00 0.00 0.00 0.00 0.00 0.00 0.04 0.04 0.01 0.00 0.00 0.00 0.00 0.00 0.00 0.00 0.00 0.00 0.00 0.00 0.00 0.00 0.00 0.00 0.00 0.00
0.00 0.00 0.00 0.00 0.00 0.00 0.00 0.00 0.00 0.00 0.00 0.00 0.00 0.00 0.00 0.00 0.00 0.00 0.00 0.00 0.00 0.01 0.00 0.00 0.00 0.02 0.04 0.02 0.00 0.00 0.00 0.00 0.00 0.00 0.00 0.00 0.00 0.00 0.00 0.00 0.00 0.00 0.00 0.00 0.00
0.00 0.00 0.00 0.00 0.00 0.00 0.00 0.00 0.00 0.00 0.00 0.00 0.00 0.01 0.00 0.01 0.00 0.00 0.00 0.00 0.00 0.00 0.00 0.00 0.00 0.02 0.03 0.01 0.01 0.00 0.00 0.00 0.00 0.00 0.00 0.00 0.00 0.00 0.00 0.00 0.00 0.00 0.00 0.00 0.00
0.00 0.00 0.00 0.00 0.00 0.00 0.00 0.00 0.00 0.00 0.00 0.00 0.01 0.01 0.00 0.00 0.00 0.00 0.00 0.00 0.00 0.00 0.00 0.00 0.00 0.01 0.03 0.02 0.01 0.00 0.00 0.00 0.00 0.00 0.00 0.00 0.00 0.00 0.00 0.00 0.00 0.00 0.00 0.00 0.00
0.01 0.00 0.00 0.00 0.00 0.00 0.00 0.00 0.00 0.00 0.00 0.00 0.02 0.01 0.02 0.00 0.00 0.00 0.00 0.00 0.00 0.00 0.00 0.00 0.00 0.05 0.05 0.05 0.00 0.00 0.01 0.01 0.00 0.00 0.00 0.00 0.00 0.00 0.00 0.00 0.00 0.00 0.00 0.00 0.00
0.01 0.00 0.00 0.01 0.01 0.01 0.01 0.00 0.00 0.00 0.00 0.00 0.00 0.02 0.02 0.00 0.00 0.00 0.00 0.00 0.00 0.00 0.00 0.00 0.01 0.08 0.09 0.09 0.03 0.04 0.06 0.02 0.00 0.00 0.00 0.00 0.00 0.00 0.00 0.00 0.00 0.00 0.00 0.00 0.00
0.02 0.01 0.00 0.01 0.01 0.01 0.01 0.02 0.01 0.01 0.00 0.00 0.00 0.03 0.01 0.00 0.00 0.00 0.00 0.00 0.00 0.00 0.00 0.00 0.04 0.13 0.14 0.10 0.15 0.06 0.05 0.01 0.00 0.00 0.00 0.00 0.00 0.00 0.00 0.00 0.00 0.00 0.00 0.00 0.00
0.05 0.04 0.01 0.00 0.01 0.00 0.01 0.04 0.03 0.05 0.04 0.02 0.02 0.04 0.00 0.00 0.00 0.00 0.00 0.00 0.00 0.04 0.09 0.09 0.10 0.20 0.21 0.17 0.16 0.04 0.01 0.00 0.00 0.00 0.00 0.00 0.00 0.00 0.00 0.00 0.00 0.00 0.00 0.00 0.00
0.06 0.04 0.02 0.01 0.01 0.00 0.03 0.03 0.01 0.02 0.04 0.01 0.01 0.00 0.00 0.00 0.00 0.00 0.00 0.00 0.00 0.06 0.17 0.23 0.19 0.21 0.21 0.13 0.05 0.03 0.02 0.01 0.00 0.00 0.00 0.00 0.00 0.00 0.00 0.00 0.00 0.00 0.00 0.00 0.00
0.07 0.06 0.05 0.03 0.03 0.02 0.04 0.02 0.00 0.00 0.02 0.00 0.00 0.00 0.00 0.00 0.00 0.01 0.00 0.00 0.01 0.02 0.13 0.35 0.41 0.10 0.18 0.14 0.14 0.09 0.10 0.03 0.01 0.01 0.01 0.00 0.00 0.00 0.00 0.00 0.00 0.00 0.00 0.00 0.00
0.10 0.08 0.08 0.05 0.07 0.07 0.03 0.01 0.00 0.02 0.21 0.09 0.00 0.00 0.00 0.00 0.00 0.03 0.01 0.00 0.01 0.03 0.17 0.25 0.13 0.10 0.33 0.26 0.23 0.18 0.13 0.11 0.02 0.01 0.03 0.02 0.00 0.00 0.00 0.00 0.00 0.00 0.00 0.00 0.00
0.15 0.12 0.10 0.09 0.05 0.01 0.03 0.02 0.05 0.10 0.46 0.08 0.00 0.00 0.01 0.02 0.02 0.00 0.00 0.01 0.03 0.07 0.17 0.15 0.02 0.13 0.38 0.52 0.34 0.32 0.11 0.08 0.12 0.06 0.03 0.02 0.02 0.00 0.00 0.00 0.00 0.00 0.00 0.00 0.00
0.23 0.18 0.16 0.07 0.02 0.04 0.02 0.02 0.09 0.27 0.28 0.01 0.00 0.00 0.00 0.03 0.02 0.01 0.00 0.03 0.04 0.13 0.29 0.19 0.07 0.15 0.35 0.52 0.40 0.39 0.10 0.08 0.13 0.14 0.10 0.04 0.07 0.01 0.00 0.00 0.00 0.00 0.00 0.00 0.00
0.23 0.25 0.17 0.13 0.04 0.02 0.01 0.03 0.12 0.25 0.12 0.01 0.01 0.01 0.02 0.01 0.02 0.10 0.04 0.04 0.10 0.27 0.25 0.08 0.10 0.18 0.22 0.36 0.40 0.28 0.25 0.23 0.25 0.33 0.39 0.08 0.06 0.03 0.00 0.00 0.00 0.00 0.00 0.00 0.00
0.29 0.35 0.17 0.04 0.03 0.01 0.01 0.08 0.16 0.11 0.01 0.06 0.04 0.04 0.05 0.02 0.01 0.06 0.09 0.06 0.10 0.25 0.31 0.23 0.28 0.32 0.23 0.63 0.65 0.75 0.81 0.84 0.69 0.61 0.36 0.04 0.04 0.02 0.00 0.00 0.00 0.00 0.00 0.00 0.00
0.39 0.62 0.39 0.06 0.04 0.01 0.05 0.16 0.15 0.01 0.03 0.11 0.13 0.14 0.13 0.03 0.01 0.02 0.09 0.11 0.05 0.05 0.14 0.18 0.19 0.40 0.23 0.63 0.90 0.81 0.86 0.63 0.49 0.28 0.13 0.08 0.02 0.00 0.00 0.00 0.00 0.00 0.00 0.00 0.00
0.48 1.01 0.96 0.31 0.11 0.08 0.08 0.16 0.05 0.07 0.11 0.15 0.29 0.30 0.17 0.05 0.03 0.03 0.04 0.03 0.02 0.05 0.23 0.19 0.20 0.33 0.23 0.48 0.69 0.78 0.63 0.33 0.31 0.24 0.11 0.14 0.03 0.00 0.00 0.00 0.00 0.00 0.00 0.00 0.00
0.86 1.00 0.81 0.30 0.20 0.30 0.36 0.12 0.07 0.15 0.18 0.17 0.18 0.15 0.10 0.05 0.10 0.05 0.03 0.00 0.00 0.00 0.08 0.17 0.24 0.41 0.55 0.65 0.75 0.52 0.41 0.39 0.47 0.47 0.17 0.14 0.02 0.00 0.00 0.00 0.00 0.00 0.00 0.00 0.00
0.75 1.16 0.58 0.31 0.59 0.71 0.36 0.07 0.10 0.16 0.32 0.31 0.22 0.23 0.15 0.08 0.03 0.03 0.01 0.00 0.00 0.00 0.05 0.20 0.34 0.50 0.56 0.55 0.57 0.60 0.67 0.41 0.26 0.18 0.19 0.08 0.02 0.00 0.00 0.00 0.00 0.00 0.00 0.00 0.00
0.73 0.80 0.50 0.47 0.89 0.52 0.11 0.05 0.14 0.18 0.32 0.36 0.33 0.26 0.18 0.11 0.07 0.02 0.00 0.00 0.00 0.00 0.03 0.12 0.34 0.52 0.43 0.16 0.16 0.33 0.37 0.42 0.45 0.16 0.10 0.00 0.00 0.00 0.00 0.00 0.00 0.00 0.00 0.00 0.00
0.68 0.53 0.72 0.42 0.35 0.11 0.02 0.06 0.20 0.21 0.37 0.44 0.31 0.25 0.16 0.14 0.11 0.00 0.00 0.00 0.00 0.00 0.01 0.05 0.30 0.47 0.50 0.25 0.21 0.46 0.40 0.39 0.32 0.15 0.03 0.00 0.00 0.00 0.00 0.00 0.00 0.00 0.00 0.00 0.00
0.54 0.41 0.86 0.97 0.26 0.04 0.06 0.08 0.22 0.25 0.41 0.45 0.33 0.28 0.24 0.14 0.04 0.00 0.00 0.00 0.00 0.00 0.01 0.09 0.20 0.50 0.51 0.40 0.22 0.25 0.19 0.18 0.17 0.05 0.03 0.01 0.00 0.00 0.00 0.00 0.00 0.00 0.00 0.00 0.00
0.31 0.19 0.18 0.24 0.16 0.03 0.10 0.15 0.29 0.47 0.43 0.50 0.44 0.21 0.16 0.09 0.02 0.00 0.00 0.00 0.00 0.00 0.01 0.17 0.20 0.53 0.52 0.23 0.07 0.14 0.08 0.08 0.03 0.03 0.03 0.01 0.00 0.00 0.00 0.00 0.00 0.00 0.00 0.00 0.00
0.22 0.07 0.04 0.01 0.01 0.02 0.08 0.17 0.33 0.46 0.52 0.44 0.36 0.19 0.15 0.05 0.01 0.00 0.00 0.00 0.00 0.01 0.01 0.02 0.12 0.26 0.40 0.13 0.04 0.04 0.02 0.04 0.02 0.01 0.01 0.01 0.00 0.00 0.00 0.00 0.00 0.00 0.00 0.00 0.00
0.18 0.03 0.04 0.04 0.02 0.04 0.04 0.13 0.27 0.42 0.36 0.23 0.27 0.22 0.09 0.02 0.00 0.00 0.00 0.00 0.00 0.00 0.00 0.00 0.02 0.13 0.26 0.12 0.01 0.00 0.00 0.00 0.00 0.00 0.01 0.01 0.00 0.00 0.00 0.00 0.00 0.00 0.00 0.00 0.00